Weather in Sulzat

Russia / Tomsk District     57°47′26″N   83°55′07″E
temp.,
°C
wind,
m/s
gust,
m/s
humid.,
%
clouds,
%
prec.,
mm/h
press.,
hPa
HPBL,
m
17 april, sat
sat1701:00−4n587999 0.2 1020829
04:00−7n48765 0.0 1022651
07:00−8n36715 0.0 1024545
10:00−6nnw23500 0.0 1025706
13:00−2w23395 0.0 1024984
16:00+1wsw35415 0.0 10231461
19:00+1sw46505 0.0 10211125
22:00−2ssw4117012 0.0 1020350
18 april, sun
sun1801:00−2ssw61370100 0.0 1017739
04:00−2ssw71565100 0.0 1013755
07:00−2ssw71690100 0.6 1009828
10:000sw61188100 0.3 1009969
13:00+4wsw4760100 0.6 10081402
16:00+2nne0287100 0.4 1006430
19:00−1ne4699100 6.6 1003302
22:00−4nne71396100 10.4 1002981
19 april, mon
mon1901:00−6n81492100 13.7 10041056
04:00−9nnw81487100 0.8 1008962
07:00−12nw71482100 0.8 1013850
10:00−10nw71074100 0.0 10171115
13:00−8wnw7966100 0.1 10201526
16:00−6nw61061100 0.0 10211746
19:00−7wnw5106512 0.0 10221301
22:00−9wnw5117893 0.0 1023620
20 april, tue
tue2001:00−9wnw498588 0.1 1023694
04:00−10nw41085100 0.0 1023509
07:00−10wnw41087100 0.0 1024654
10:00−7nw5772100 0.0 1025964
13:00−4wnw5662100 0.0 10251378
16:00−3nw4656100 0.0 10241592
19:00−3nw246695 0.1 1024766
22:00−9ssw1191100 0.0 102411
21 april, wed
wed2101:00−12ssw11955 0.0 102313
04:00−13s119611 0.0 102220
07:00−11sse2494100 0.0 102375
10:00−3sse357159 0.0 1024668
13:000sse245881 0.0 10251413
16:00+1sw125572 0.0 10271189
19:00+1ne136775 0.1 1030124
22:00−6ne11925 0.0 103315